Natchez, MS

12:35 AM CST on November 18, 2019 (GMT -0600)
Hardy-Anders-Adams County

Weather History for KHEZ - September, 2019

Change the Weather History Date:

Saturday, September 7, 2019

  Actual Average Record
Temperature  
Mean Temperature 84 °F -  
Max Temperature 97 °F 88 °F 100 °F (1947)
Min Temperature 72 °F 68 °F 48 °F (2011)
Cooling Degree Days 20    
Growing Degree Days 34 (Base 50)    
Moisture  
Dew Point 71 °F    
Average Humidity 68    
Maximum Humidity 93    
Minimum Humidity 37    
Precipitation  
Precipitation 0.00 in - - ()
Sea Level Pressure  
Sea Level Pressure 29.99 in    
Wind  
Wind Speed 2 mph (West)    
Max Wind Speed 9 mph    
Max Gust Speed -    
Visibility 10 miles    
Events      
Averages and records for this station are not official NWS values.
T = Trace of Precipitation, MM = Missing Value Source: NWS Daily Summary

Daily Weather History Graph

Daily Weather History Graph

Search for Another Location

Airport or City:

Astronomy

Sep. 07, 2019 Rise Set
Actual Time 6:44 AM CDT 7:21 PM CDT
Civil Twilight 6:19 AM CDT 7:46 PM CDT
Nautical Twilight 5:50 AM CDT 8:15 PM CDT
Astronomical Twilight 5:21 AM CDT 8:44 PM CDT
Moon 3:20 PM CDT (9/7) 12:52 AM CDT (9/7)
Length of Visible Light 13h 26m
Length of Day
12h 37m
Waxing Gibbous, 66% of the Moon is Illuminated
Sep 7
Waxing Gibbous
Sep 13
Full
Sep 21
Last Quarter
Sep 28
New
Oct 5
First Quarter

Hourly Weather History & Observations

Time (CDT) Temp. Heat Index Dew Point Humidity Pressure Visibility Wind Dir Wind Speed Gust Speed Precip Events Conditions
12:56 AM 75.9 °F - 72.0 °F 87% 30.00 in 10.0 mi Calm Calm - N/A   Clear
1:56 AM 75.0 °F - 72.0 °F 90% 30.00 in 10.0 mi Calm Calm - N/A   Clear
2:56 AM 73.9 °F - 71.1 °F 91% 30.00 in 10.0 mi Calm Calm - N/A   Clear
3:56 AM 73.0 °F - 71.1 °F 93% 29.99 in 10.0 mi Calm Calm - N/A   Clear
4:56 AM 73.0 °F - 70.0 °F 90% 29.99 in 10.0 mi Calm Calm - N/A   Clear
5:56 AM 72.0 °F - 70.0 °F 93% 30.01 in 10.0 mi SSE 3.5 mph - N/A   Clear
6:56 AM 72.0 °F - 70.0 °F 93% 30.03 in 10.0 mi Calm Calm - N/A   Clear
7:56 AM 78.1 °F - 73.0 °F 84% 30.04 in 10.0 mi Calm Calm - N/A   Clear
8:56 AM 82.9 °F 88.0 °F 72.0 °F 69% 30.04 in 10.0 mi West 4.6 mph - N/A   Clear
9:56 AM 88.0 °F 93.8 °F 71.1 °F 57% 30.04 in 10.0 mi WNW 5.8 mph - N/A   Clear
10:56 AM 90.0 °F 96.4 °F 71.1 °F 54% 30.04 in 10.0 mi West 5.8 mph - N/A   Clear
11:56 AM 91.9 °F 96.9 °F 69.1 °F 47% 30.02 in 10.0 mi NNW 8.1 mph - N/A   Clear
12:56 PM 93.9 °F 99.1 °F 69.1 °F 44% 30.00 in 10.0 mi NW 9.2 mph - N/A   Clear
1:56 PM 96.1 °F 101.6 °F 69.1 °F 41% 29.99 in 10.0 mi WNW 9.2 mph - N/A   Clear
2:56 PM 97.0 °F 102.2 °F 68.0 °F 39% 29.96 in 10.0 mi North 8.1 mph - N/A   Clear
3:56 PM 97.0 °F 101.0 °F 66.9 °F 37% 29.95 in 10.0 mi WNW 4.6 mph - N/A   Scattered Clouds
4:56 PM 97.0 °F 102.2 °F 68.0 °F 39% 29.94 in 10.0 mi WNW 5.8 mph - N/A   Clear
5:56 PM 95.0 °F 101.3 °F 70.0 °F 44% 29.94 in 10.0 mi SW 4.6 mph - N/A   Clear
6:56 PM 90.0 °F 97.9 °F 73.0 °F 57% 29.95 in 10.0 mi SSW 4.6 mph - N/A   Clear
7:56 PM 84.9 °F 92.1 °F 73.9 °F 69% 29.95 in 10.0 mi SSW 4.6 mph - N/A   Clear
8:56 PM 82.0 °F 87.9 °F 73.9 °F 76% 29.96 in 10.0 mi Calm Calm - N/A   Clear
9:56 PM 80.1 °F 84.2 °F 73.0 °F 79% 29.97 in 10.0 mi Calm Calm - N/A   Clear
10:56 PM 79.0 °F - 73.0 °F 82% 29.98 in 10.0 mi South 3.5 mph - N/A   Clear
11:56 PM 78.1 °F - 73.0 °F 84% 29.97 in 10.0 mi Calm Calm - N/A   Clear